sat.trackr.live / text

‹ back to catalog

STARLINK-11288 [DTC]

NORAD 61002 · 2024-158N

PAYLOAD ACTIVE UNKNOWN

§ Identity

Operator
Country
US
Launch date
2024-09-05
Launch site
AFETR
Launch vehicle
Mass (kg)
RCS (m²)

Purposes: comms

External: N2YO · Heavens-Above · Gunter

§ Orbital elements

Epoch: 2026-05-24T16:35:20.008320Z

Period
91.74 min
Inclination
53.1597°
Eccentricity
0.0000992
Mean motion
15.69707257 rev/d
Perigee alt
359.1 km
Apogee alt
360.4 km
Semi-major
6,737.9 km
B*
1.1117e-5
RAAN
266.4468°
Arg perigee
72.7488°
Mean anomaly
287.3639°
Rev number
9,952

§ Raw data

STARLINK-11288 [DTC]1 61002U 24158N   26144.69120380  .00000758  00000+0  11117-4 0  99992 61002  53.1597 266.4468 0000992  72.7488 287.3639 15.69707257 99525

JSON: /api/v1/satellites/61002 · /tle

For live sub-satellite position, see the globe view (requires WebGL).

§ Visibility from observer

Set your observer location to see the next 7 days of passes ≥ 10°. The values pass through the URL so the page stays shareable.

No JS? Fill the form by hand. The geolocation button needs JavaScript.